Location: Clanezzo
(45.7500°N, 9.6000°E)
Time: 04:30:08
(UTC+00:00)

COBE Rocket - Pass Details

Date: 12 May 2021
Orbit: 679 x 782 km, 97.1° (Epoch: 18 June)

Event Time Altitude Azimuth Distance (km) Brightness Sun altitude
Exits shadow 23:16:39 64° 256° (WSW) 845 4.0 -25.9°
Maximum altitude 23:16:43 65° 260° (W) 845 4.0 -25.9°
Drops below altitude 10° 23:21:51 10° 342° (NNW) 2,335 7.4 -25.9°
Sets 23:24:13 0° 346° (NNW) 3,274 8.5 -25.9°
